�N����,����,�~����,�C��,���x,�C��,����,���ϕ���,�ő�u�ԕ���,�ő厞����,���˗�,�I�_���x,�n�����x,�ő啗���N��,DTYPE
"23/09/24","00:10",0.0,17.2,89.7,1011.4,293.2,1.0,2.2,336.9,0.00,15.5,23.1,"00:07:52",1
"23/09/24","00:20",0.0,17.0,90.0,1011.4,322.1,1.1,1.8,334.9,0.00,15.4,23.2,"00:11:52",1
"23/09/24","00:30",0.0,17.0,90.2,1011.2,315.9,1.1,2.1,325.9,0.00,15.4,23.1,"00:24:48",1
"23/09/24","00:40",0.0,17.1,90.4,1011.2,314.4,0.7,1.8,255.8,0.00,15.6,22.9,"00:38:40",1
"23/09/24","00:50",0.0,17.2,90.4,1011.2,302.5,0.7,1.4,311.1,0.00,15.7,22.9,"00:46:08",1
"23/09/24","01:00",0.0,17.2,90.4,1011.2,294.5,0.8,1.8,316.1,0.00,15.7,23.0,"00:54:56",1
"23/09/24","01:10",0.0,17.4,90.4,1011.6,317.8,1.0,2.0,314.6,0.00,15.9,22.9,"01:05:36",1
"23/09/24","01:20",0.0,17.7,90.0,1011.4,329.1,1.1,2.1,355.9,0.00,16.1,22.7,"01:16:16",1
"23/09/24","01:30",0.0,17.8,89.2,1010.9,309.2,1.5,2.6,332.6,0.00,16.0,22.8,"01:27:04",1
"23/09/24","01:40",0.0,18.2,88.1,1010.9,309.7,1.0,2.1,338.2,0.00,16.2,22.9,"01:34:08",1
"23/09/24","01:50",0.0,18.2,87.2,1011.2,309.4,0.7,1.6,317.2,0.00,16.1,22.7,"01:46:40",1
"23/09/24","02:00",0.0,18.0,86.8,1011.4,307.8,1.0,2.1,319.9,0.00,15.8,22.8,"01:53:20",1
"23/09/24","02:10",0.0,18.1,86.8,1011.4,331.7,1.6,2.1,330.3,0.00,15.9,22.7,"02:04:56",1
"23/09/24","02:20",0.0,17.9,86.8,1011.2,327.2,1.1,1.9,328.2,0.00,15.7,22.7,"02:14:08",1
"23/09/24","02:30",0.0,17.9,86.7,1011.2,5.4,0.5,1.3,325.0,0.00,15.7,22.5,"02:22:08",1
"23/09/24","02:40",0.0,17.6,87.0,1011.4,292.0,0.6,1.0,301.2,0.00,15.5,22.7,"02:32:00",1
"23/09/24","02:50",0.0,17.3,87.3,1010.9,315.3,0.8,1.3,313.2,0.00,15.2,22.6,"02:47:20",1
"23/09/24","03:00",0.0,17.4,87.8,1010.9,325.1,1.3,1.7,326.0,0.00,15.4,22.6,"02:53:12",1
"23/09/24","03:10",0.0,17.7,88.3,1010.9,288.4,1.0,1.6,262.0,0.00,15.8,22.5,"03:01:04",1
"23/09/24","03:20",0.0,17.7,88.6,1011.2,333.6,1.3,2.0,340.7,0.00,15.8,22.5,"03:16:00",1
"23/09/24","03:30",0.0,17.7,88.7,1010.9,312.9,1.1,2.1,336.2,0.00,15.9,22.5,"03:25:04",1
"23/09/24","03:40",0.0,17.6,89.0,1011.2,304.5,1.2,1.7,303.8,0.00,15.8,22.5,"03:31:28",1
"23/09/24","03:50",0.0,17.7,89.0,1011.2,316.8,1.2,2.0,329.0,0.00,15.9,22.4,"03:42:56",1
"23/09/24","04:00",0.0,17.9,89.0,1011.6,335.1,1.3,2.0,338.4,0.00,16.1,22.5,"03:51:36",1
"23/09/24","04:10",0.0,18.0,88.8,1011.6,346.0,0.7,1.6,332.9,0.00,16.2,22.4,"04:02:32",1
"23/09/24","04:20",0.0,17.8,88.9,1011.4,321.7,1.2,1.6,310.8,0.00,16.0,22.5,"04:14:56",1
"23/09/24","04:30",0.0,17.7,89.1,1011.4,299.8,1.0,1.4,317.0,0.00,15.9,22.3,"04:22:24",1
"23/09/24","04:40",0.0,17.7,89.2,1011.4,2.5,0.3,1.2,263.3,0.00,15.9,22.2,"04:39:28",1
"23/09/24","04:50",0.0,17.5,89.4,1011.4,311.5,0.8,1.3,320.4,0.00,15.8,22.3,"04:43:28",1
"23/09/24","05:00",0.0,17.5,89.6,1011.6,322.0,0.5,1.4,326.5,0.00,15.8,22.4,"04:59:28",1
"23/09/24","05:10",0.0,17.3,90.0,1011.6,304.7,0.8,1.7,336.3,0.00,15.7,22.3,"05:01:36",1
"23/09/24","05:20",0.0,17.3,90.2,1011.6,318.1,1.2,1.6,332.3,0.00,15.7,22.3,"05:13:44",1
"23/09/24","05:30",0.0,17.2,90.6,1011.9,320.8,1.0,1.8,336.6,0.00,15.7,22.5,"05:23:44",1
"23/09/24","05:40",0.0,17.0,90.8,1011.9,320.5,1.0,1.6,324.5,0.00,15.5,22.3,"05:39:36",1
"23/09/24","05:50",0.0,16.9,91.2,1011.9,317.4,1.2,1.6,324.0,0.00,15.5,22.1,"05:48:32",1
"23/09/24","06:00",0.0,16.8,91.6,1012.1,324.1,1.1,1.8,319.3,0.00,15.5,22.2,"05:53:36",1
"23/09/24","06:10",0.0,16.7,91.8,1012.1,298.1,1.0,1.3,321.1,0.00,15.4,22.1,"06:09:12",1
"23/09/24","06:20",0.0,16.7,92.0,1012.3,297.3,0.8,1.4,327.0,0.00,15.4,22.2,"06:11:12",1
"23/09/24","06:30",0.0,16.9,92.3,1012.3,313.4,1.1,1.9,323.7,0.00,15.7,22.0,"06:21:52",1
"23/09/24","06:40",0.0,16.9,92.4,1012.3,299.3,0.6,1.4,322.7,0.00,15.7,22.1,"06:39:12",1
"23/09/24","06:50",0.0,17.2,92.8,1012.3,326.7,1.5,2.1,338.8,0.01,16.1,22.0,"06:48:32",1
"23/09/24","07:00",0.0,18.1,93.0,1012.6,333.2,0.6,1.6,327.5,0.03,17.0,22.1,"06:51:12",1
"23/09/24","07:10",0.0,19.2,92.8,1012.3,49.5,0.3,1.4,313.4,0.06,18.0,22.0,"07:04:24",1
"23/09/24","07:20",0.0,19.6,91.1,1012.3,253.3,0.3,1.1,177.6,0.08,18.1,22.2,"07:10:02",1
"23/09/24","07:30",0.0,19.7,90.4,1013.0,206.3,0.8,1.8,132.6,0.10,18.1,21.9,"07:23:28",1
"23/09/24","07:40",0.0,20.6,87.4,1012.8,210.3,0.5,1.1,199.8,0.12,18.5,21.9,"07:37:20",1
"23/09/24","07:50",0.0,21.7,83.8,1012.8,190.7,0.3,0.9,204.0,0.15,18.9,22.0,"07:48:56",1
"23/09/24","08:00",0.0,22.5,78.6,1012.8,260.8,0.5,1.6,211.9,0.17,18.6,22.1,"07:58:08",1
"23/09/24","08:10",0.0,23.0,74.7,1012.1,229.9,0.6,1.6,178.9,0.19,18.3,22.0,"08:09:44",1
"23/09/24","08:20",0.0,23.8,73.0,1012.1,133.5,0.6,1.6,125.6,0.22,18.7,22.2,"08:12:32",1
"23/09/24","08:30",0.0,24.4,68.4,1012.1,133.0,0.5,1.2,142.2,0.24,18.2,22.2,"08:21:44",1
"23/09/24","08:40",0.0,24.8,66.5,1011.6,158.1,0.7,1.8,229.3,0.26,18.2,22.1,"08:39:52",1
"23/09/24","08:50",0.0,24.5,65.1,1011.6,225.5,1.0,2.2,192.9,0.28,17.6,22.2,"08:46:48",1
"23/09/24","09:00",0.0,25.0,64.2,1011.4,200.9,0.8,2.1,201.7,0.30,17.8,22.2,"08:57:20",1
"23/09/24","09:10",0.0,25.7,64.3,1011.6,156.0,0.7,2.1,201.8,0.32,18.5,22.1,"09:07:20",1
"23/09/24","09:20",0.0,25.3,63.4,1011.6,180.1,1.8,2.8,171.5,0.34,17.9,22.2,"09:13:44",1
"23/09/24","09:30",0.0,25.6,63.2,1011.4,187.8,1.7,3.9,184.0,0.36,18.1,22.2,"09:23:20",1
"23/09/24","09:40",0.0,26.2,60.9,1011.6,193.0,1.2,3.6,207.8,0.37,18.1,22.6,"09:35:04",1
"23/09/24","09:50",0.0,27.1,59.5,1011.4,131.5,1.1,2.7,204.5,0.39,18.6,22.5,"09:44:40",1
"23/09/24","10:00",0.0,27.4,58.1,1011.6,124.7,1.0,2.6,86.3,0.40,18.5,22.7,"09:55:52",1
"23/09/24","10:10",0.0,27.7,56.9,1011.9,116.4,1.0,2.6,112.2,0.42,18.4,22.5,"10:02:56",1
"23/09/24","10:20",0.0,28.0,56.4,1012.1,121.2,1.1,2.2,111.5,0.43,18.6,22.6,"10:11:20",1
"23/09/24","10:30",0.0,28.5,56.1,1012.6,179.2,1.0,3.3,218.3,0.44,18.9,22.7,"10:20:48",1
"23/09/24","10:40",0.0,28.4,54.6,1012.3,172.3,1.5,3.2,157.6,0.45,18.4,22.6,"10:37:44",1
"23/09/24","10:50",0.0,28.4,54.1,1012.3,148.5,1.3,2.7,115.5,0.46,18.3,22.9,"10:42:24",1
"23/09/24","11:00",0.0,28.6,53.2,1012.3,138.4,1.5,3.1,143.8,0.46,18.2,23.2,"10:58:00",1
"23/09/24","11:10",0.0,28.7,52.2,1012.3,167.2,1.1,3.4,219.0,0.47,18.0,23.1,"11:05:44",1
"23/09/24","11:20",0.0,29.1,51.1,1012.6,188.8,1.1,2.4,223.4,0.47,18.0,23.1,"11:18:00",1
"23/09/24","11:30",0.0,29.5,52.4,1012.6,208.8,0.8,2.2,227.6,0.48,18.8,23.2,"11:21:36",1
"23/09/24","11:40",0.0,30.0,48.7,1012.6,121.0,1.0,2.2,44.4,0.48,18.1,23.3,"11:37:04",1
"23/09/24","11:50",0.0,29.8,45.9,1012.3,24.8,1.1,2.1,36.0,0.48,16.9,23.4,"11:47:20",1
"23/09/24","12:00",0.0,30.0,46.7,1012.8,335.3,0.8,2.4,235.1,0.48,17.4,23.5,"11:58:48",1
"23/09/24","12:10",0.0,30.1,47.6,1012.3,114.5,0.8,2.6,241.1,0.48,17.8,23.6,"12:04:40",1
"23/09/24","12:20",0.0,30.2,47.7,1012.3,200.2,1.2,4.4,233.1,0.48,17.9,23.6,"12:10:02",1
"23/09/24","12:30",0.0,30.0,47.8,1012.1,209.4,1.6,3.1,212.2,0.48,17.8,23.9,"12:25:20",1
"23/09/24","12:40",0.0,30.0,45.5,1012.1,148.2,1.6,3.2,183.2,0.46,17.0,23.8,"12:31:20",1
"23/09/24","12:50",0.0,30.5,43.1,1012.1,155.7,1.0,2.4,196.3,0.49,16.6,24.0,"12:44:16",1
"23/09/24","13:00",0.0,30.5,44.6,1011.9,170.9,1.6,4.9,146.4,0.50,17.1,24.1,"12:59:36",1
"23/09/24","13:10",0.0,29.4,46.5,1011.9,189.1,2.2,4.4,143.0,0.34,16.8,24.2,"13:06:00",1
"23/09/24","13:20",0.0,29.7,48.6,1010.9,208.4,2.0,4.3,189.5,0.36,17.8,24.2,"13:13:04",1
"23/09/24","13:30",0.0,30.1,46.6,1011.2,200.5,2.2,4.5,205.5,0.45,17.5,24.3,"13:24:48",1
"23/09/24","13:40",0.0,30.7,46.2,1011.2,119.1,0.8,2.5,107.5,0.37,17.9,24.2,"13:30:48",1
"23/09/24","13:50",0.0,30.9,45.2,1011.4,209.1,1.3,3.1,212.6,0.45,17.7,24.4,"13:46:00",1
"23/09/24","14:00",0.0,30.7,46.0,1011.2,191.5,1.0,4.3,206.8,0.31,17.8,24.5,"13:54:32",1
"23/09/24","14:10",0.0,30.4,43.9,1011.2,157.8,0.8,2.0,179.8,0.28,16.8,24.6,"14:05:04",1
"23/09/24","14:20",0.0,30.8,44.8,1010.9,155.4,0.7,2.4,330.4,0.30,17.5,24.8,"14:18:00",1
"23/09/24","14:30",0.0,30.5,45.6,1010.7,62.6,0.5,1.2,355.4,0.14,17.5,24.7,"14:22:08",1
"23/09/24","14:40",0.0,29.4,48.2,1010.7,157.7,1.0,2.5,201.2,0.12,17.4,24.8,"14:37:04",1
"23/09/24","14:50",0.0,29.0,48.1,1010.2,146.2,0.7,2.4,56.1,0.09,17.0,24.9,"14:49:44",1
"23/09/24","15:00",0.0,29.4,50.4,1010.0,26.0,0.6,1.6,359.5,0.11,18.1,24.7,"14:52:16",1
"23/09/24","15:10",0.0,30.3,46.3,1010.0,180.6,0.6,1.9,326.8,0.22,17.5,24.9,"15:09:20",1
"23/09/24","15:20",0.0,29.6,50.3,1009.7,191.5,1.0,3.4,234.0,0.08,18.2,24.9,"15:15:44",1
"23/09/24","15:30",0.0,28.8,51.2,1009.7,200.2,1.7,3.3,222.6,0.07,17.8,24.9,"15:28:48",1
"23/09/24","15:40",0.0,28.4,53.0,1009.3,171.1,1.5,2.8,223.2,0.06,17.9,24.8,"15:39:12",1
"23/09/24","15:50",0.0,28.3,53.4,1009.0,214.7,2.3,4.1,225.1,0.05,18.0,25.2,"15:44:40",1
"23/09/24","16:00",0.0,28.1,53.5,1008.3,211.9,1.8,4.1,217.4,0.05,17.8,24.9,"15:53:52",1
"23/09/24","16:10",0.0,28.0,53.5,1008.8,191.3,1.7,3.3,201.3,0.05,17.7,24.9,"16:07:36",1
"23/09/24","16:20",0.0,28.1,54.5,1008.6,207.8,1.2,2.9,230.1,0.04,18.1,25.0,"16:14:40",1
"23/09/24","16:30",0.0,28.0,54.1,1008.3,216.8,1.7,3.6,233.7,0.03,17.9,24.9,"16:23:04",1
"23/09/24","16:40",0.0,28.9,53.6,1008.3,239.7,0.5,1.7,236.9,0.07,18.6,24.8,"16:34:00",1
"23/09/24","16:50",0.0,29.0,50.6,1008.6,194.3,1.3,4.0,215.7,0.06,17.8,24.8,"16:49:44",1
"23/09/24","17:00",0.0,28.4,53.4,1009.0,202.7,2.2,4.4,216.0,0.04,18.1,24.8,"16:58:24",1
"23/09/24","17:10",0.0,27.6,54.7,1008.8,212.2,2.7,6.5,227.0,0.00,17.7,25.0,"17:03:52",1
"23/09/24","17:20",0.0,27.3,55.0,1009.3,222.0,2.5,4.1,212.3,0.00,17.5,24.7,"17:17:52",1
"23/09/24","17:30",0.0,27.1,55.2,1009.5,223.2,2.0,3.9,225.5,0.00,17.4,24.7,"17:26:00",1
"23/09/24","17:40",0.0,27.1,55.5,1009.3,231.4,2.0,3.9,224.4,0.00,17.5,24.6,"17:38:16",1
"23/09/24","17:50",0.0,26.9,59.3,1009.7,248.7,1.5,3.4,236.0,0.00,18.3,24.7,"17:46:56",1
"23/09/24","18:00",0.0,26.6,61.0,1009.7,257.2,1.3,2.9,234.8,0.00,18.5,24.6,"17:56:16",1
"23/09/24","18:10",0.0,26.2,62.5,1009.5,319.3,0.6,1.8,236.8,0.00,18.5,24.7,"18:05:20",1
"23/09/24","18:20",0.0,25.7,64.9,1010.2,338.2,0.7,1.3,335.7,0.00,18.6,24.7,"18:19:28",1
"23/09/24","18:30",0.0,25.2,66.9,1010.0,315.2,0.7,1.9,348.3,0.00,18.7,24.6,"18:20:02",1
"23/09/24","18:40",0.0,25.1,67.9,1010.4,336.9,1.2,2.1,331.8,0.00,18.8,24.7,"18:32:16",1
"23/09/24","18:50",0.0,24.8,68.7,1010.9,319.9,1.1,2.5,353.7,0.00,18.7,24.4,"18:42:32",1
"23/09/24","19:00",0.0,24.6,69.3,1011.2,316.0,1.0,2.0,338.1,0.00,18.6,24.6,"18:59:28",1
"23/09/24","19:10",0.0,24.4,70.2,1011.4,315.6,1.1,3.1,332.2,0.00,18.7,24.5,"19:08:56",1
"23/09/24","19:20",0.0,24.2,71.2,1011.6,338.9,1.8,3.2,315.4,0.00,18.7,24.3,"19:18:56",1
"23/09/24","19:30",0.0,24.0,71.5,1011.6,323.5,1.8,3.9,340.3,0.00,18.6,24.2,"19:20:48",1
"23/09/24","19:40",0.0,23.9,71.8,1011.9,320.8,1.8,4.0,344.0,0.00,18.5,24.5,"19:34:40",1
"23/09/24","19:50",0.0,23.7,72.4,1012.3,309.5,1.5,3.3,315.6,0.00,18.5,24.4,"19:47:36",1
"23/09/24","20:00",0.0,23.6,73.0,1012.3,309.7,1.7,3.5,351.6,0.00,18.5,24.3,"19:52:08",1
"23/09/24","20:10",0.0,23.4,73.6,1012.8,317.7,1.2,3.1,327.7,0.00,18.5,24.4,"20:00:56",1
"23/09/24","20:20",0.0,23.1,74.9,1012.8,275.9,0.8,1.4,317.2,0.00,18.4,24.2,"20:14:00",1
"23/09/24","20:30",0.0,22.6,76.1,1012.3,291.4,0.8,1.2,266.4,0.00,18.2,24.1,"20:22:32",1
"23/09/24","20:40",0.0,22.1,77.7,1012.6,303.4,0.8,1.7,337.6,0.00,18.1,24.2,"20:30:02",1
"23/09/24","20:50",0.0,22.1,79.5,1012.3,316.1,1.5,2.6,335.6,0.00,18.4,24.2,"20:42:56",1
"23/09/24","21:00",0.0,21.8,80.6,1012.3,316.4,1.3,2.0,298.2,0.00,18.4,24.0,"20:52:08",1
"23/09/24","21:10",0.0,21.6,81.4,1012.6,278.7,0.8,1.3,268.7,0.00,18.3,24.1,"21:05:52",1
"23/09/24","21:20",0.0,21.4,82.2,1012.3,316.6,1.1,2.0,332.8,0.00,18.3,24.0,"21:18:24",1
"23/09/24","21:30",0.0,21.3,82.8,1012.1,335.0,1.2,2.0,337.2,0.00,18.3,24.2,"21:25:52",1
"23/09/24","21:40",0.0,20.9,83.4,1012.1,314.3,0.8,1.4,335.5,0.00,18.0,23.9,"21:32:24",1
"23/09/24","21:50",0.0,20.5,84.2,1012.3,308.6,0.7,1.7,325.5,0.00,17.8,23.9,"21:49:20",1
"23/09/24","22:00",0.0,20.6,85.0,1012.1,313.0,1.2,2.0,304.9,0.00,18.0,24.1,"21:51:04",1
"23/09/24","22:10",0.0,20.4,85.4,1012.3,330.1,1.1,1.4,338.1,0.00,17.9,23.8,"22:04:56",1
"23/09/24","22:20",0.0,20.0,85.9,1012.1,291.5,0.8,1.2,290.6,0.00,17.6,23.7,"22:17:20",1
"23/09/24","22:30",0.0,20.0,86.7,1012.1,300.0,1.0,1.3,331.6,0.00,17.8,23.7,"22:24:56",1
"23/09/24","22:40",0.0,20.1,87.0,1012.6,316.2,1.0,1.6,323.2,0.00,17.9,23.7,"22:39:44",1
"23/09/24","22:50",0.0,20.1,87.3,1012.6,333.2,1.3,1.9,326.5,0.00,18.0,23.5,"22:41:52",1
"23/09/24","23:00",0.0,19.9,87.5,1012.1,329.3,1.0,1.3,328.5,0.00,17.8,23.6,"22:55:52",1
"23/09/24","23:10",0.0,19.7,87.9,1012.3,315.2,0.8,1.6,318.6,0.00,17.7,23.4,"23:06:40",1
"23/09/24","23:20",0.0,19.6,88.1,1012.3,319.8,1.0,1.7,334.3,0.00,17.6,23.5,"23:12:00",1
"23/09/24","23:30",0.0,19.5,88.3,1012.6,328.3,1.0,1.3,312.3,0.00,17.6,23.5,"23:21:28",1
"23/09/24","23:40",0.0,19.3,88.6,1012.3,319.6,0.8,1.3,340.5,0.00,17.4,23.4,"23:32:40",1
"23/09/24","23:50",0.0,19.3,89.0,1012.6,321.3,1.2,1.8,329.4,0.00,17.5,23.2,"23:43:12",1
"23/09/24","24:00",0.0,19.3,89.0,1012.6,317.2,1.0,1.4,328.4,0.00,17.5,23.5,"23:51:12",1
